FW6122 Weather Reports


Display with metric or nautical units.
time (UTC)temp
F
wind
direction
speed
MPH
gust
MPH
rain 1hr
in
rain 24hr
in
rain mn
in
humidity
%
barometer
mb
20260901214546 77 221 3.0 9.0 0.00 0.00 0.00 26 1012.7
20260901213041 76 238 3.0 8.0 0.00 0.00 0.00 24 1012.8
20260901211540 77 144 3.0 9.0 0.00 0.00 0.00 23 1012.8
20260901210043 76 250 3.0 10.0 0.00 0.00 0.00 26 1012.8
20260901204541 77 167 3.0 8.0 0.00 0.00 0.00 29 1013.0
20260901203045 76 196 1.0 10.0 0.00 0.00 0.00 31 1013.1
20260901201533 76 190 1.0 6.0 0.00 0.00 0.00 31 1013.4
20260901200045 76 171 2.0 9.0 0.00 0.00 0.00 31 1013.5
20260901194537 77 163 3.0 7.0 0.00 0.00 0.00 30 1013.5
20260901193029 76 209 2.0 5.0 0.00 0.00 0.00 29 1013.5
20260901191525 76 227 1.0 7.0 0.00 0.00 0.00 29 1013.7
20260901190039 75 216 2.0 6.0 0.00 0.00 0.00 29 1013.9
20260901184521 74 244 3.0 5.0 0.00 0.00 0.00 28 1014.0
20260901183027 74 163 2.0 8.0 0.00 0.00 0.00 27 1013.9
20260901181518 75 153 2.0 6.0 0.00 0.00 0.00 27 1013.9
20260901180016 74 194 1.0 7.0 0.00 0.00 0.00 27 1013.7
20260901174515 73 192 1.0 4.0 0.00 0.00 0.00 27 1013.6
20260901173009 72 274 2.0 7.0 0.00 0.00 0.00 28 1013.7
20260901171508 71 186 3.0 10.0 0.00 0.00 0.00 29 1013.4
20260901170005 70 245 2.0 5.0 0.00 0.00 0.00 30 1013.1
20260901164600 68 228 2.0 8.0 0.00 0.00 0.00 32 1013.0
20260901163056 67 182 2.0 10.0 0.00 0.00 0.00 38 1012.8
20260901161608 66 218 2.0 6.0 0.00 0.00 0.00 41 1012.6
20260901160051 66 197 2.0 5.0 0.00 0.00 0.00 46 1012.4
20260901154549 65 184 3.0 7.0 0.00 0.00 0.00 48 1012.4
20260901153046 64 277 3.0 7.0 0.00 0.00 0.00 49 1012.3
20260901151542 63 196 2.0 6.0 0.00 0.00 0.00 50 1012.2
20260901150042 63 227 2.0 7.0 0.00 0.00 0.00 51 1012.0
20260901144536 62 251 3.0 6.0 0.00 0.00 0.00 52 1011.8
20260901143037 61 159 3.0 9.0 0.00 0.00 0.00 53 1011.9
20260901141529 61 237 3.0 9.0 0.00 0.00 0.00 53 1011.7
20260901140030 60 189 3.0 8.0 0.00 0.00 0.00 51 1011.5
20260901134526 60 189 3.0 10.0 0.00 0.00 0.00 51 1011.5
20260901133032 60 215 3.0 6.0 0.00 0.00 0.00 49 1011.4
20260901131524 60 192 2.0 5.0 0.00 0.00 0.00 47 1011.4
20260901130023 60 184 2.0 6.0 0.00 0.00 0.00 39 1011.4
20260901124522 60 211 3.0 6.0 0.00 0.00 0.00 34 1011.4
20260901123023 60 220 3.0 7.0 0.00 0.00 0.00 35 1011.2
20260901121523 60 240 3.0 9.0 0.00 0.00 0.00 35 1011.1
20260901120021 60 232 3.0 7.0 0.00 0.00 0.00 36 1011.1
20260901114518 60 200 2.0 5.0 0.00 0.00 0.00 35 1011.0
20260901113018 60 209 3.0 10.0 0.00 0.00 0.00 37 1011.0
20260901111517 60 210 2.0 8.0 0.00 0.00 0.00 36 1010.9
20260901110016 60 227 2.0 7.0 0.00 0.00 0.00 38 1010.9
20260901104534 60 227 2.0 7.0 0.00 0.00 0.00 39 1010.9
20260901103014 60 169 2.0 6.0 0.00 0.00 0.00 42 1010.8
20260901101519 60 189 2.0 9.0 0.00 0.00 0.00 44 1011.0
20260901100014 59 186 2.0 5.0 0.00 0.00 0.00 42 1011.1
20260901094512 58 173 1.0 3.0 0.00 0.00 0.00 38 1011.2
20260901093012 59 188 2.0 5.0 0.00 0.00 0.00 31 1011.1
20260901091511 59 232 2.0 4.0 0.00 0.00 0.00 34 1011.0
20260901090010 58 181 1.0 5.0 0.00 0.00 0.00 41 1010.8
20260901084505 59 182 2.0 4.0 0.00 0.00 0.00 54 1010.8
20260901083100 59 207 2.0 5.0 0.00 0.00 0.00 62 1010.8
20260901081558 59 172 2.0 5.0 0.00 0.00 0.00 63 1010.9
20260901080056 59 180 2.0 4.0 0.00 0.00 0.00 65 1010.9
20260901074555 59 212 2.0 5.0 0.00 0.00 0.00 67 1011.0
20260901073050 60 157 1.0 5.0 0.00 0.00 0.00 70 1011.0
20260901071601 60 207 1.0 8.0 0.00 0.00 0.00 70 1011.0
20260901070044 60 186 2.0 7.0 0.00 0.00 0.00 71 1011.1
20260901064542 60 182 2.0 7.0 0.00 0.00 0.00 71 1011.2
20260901063040 60 182 2.0 4.0 0.00 0.00 0.00 71 1011.3
20260901061543 60 208 1.0 4.0 0.00 0.00 0.00 71 1011.5
20260901060039 60 194 1.0 3.0 0.00 0.00 0.00 71 1011.6
20260901054538 60 180 1.0 3.0 0.00 0.00 0.00 69 1011.6
20260901053038 60 195 1.0 3.0 0.00 0.00 0.00 67 1011.6
20260901051535 60 198 1.0 3.0 0.00 0.00 0.00 66 1011.6
20260901050035 61 207 1.0 3.0 0.00 0.00 0.00 65 1011.5
20260901044534 60 209 1.0 3.0 0.00 0.00 0.00 65 1011.6
20260901043034 60 208 1.0 3.0 0.00 0.00 0.00 65 1011.5
20260901041535 61 209 1.0 3.0 0.00 0.00 0.00 64 1011.4
20260901040033 61 166 1.0 3.0 0.00 0.00 0.00 64 1011.4
20260901034538 61 210 1.0 4.0 0.00 0.00 0.00 63 1011.3
20260901033044 61 195 1.0 3.0 0.00 0.00 0.00 62 1011.1
20260901031553 61 198 0.0 2.0 0.00 0.00 0.00 62 1010.8
20260901030035 61 198 0.0 0.0 0.00 0.00 0.00 62 1010.7
20260901024531 62 198 0.0 0.0 0.00 0.00 0.00 59 1010.6
20260901023030 63 198 0.0 3.0 0.00 0.00 0.00 57 1010.3
20260901021527 64 194 0.0 4.0 0.00 0.00 0.00 55 1010.1
20260901020032 65 194 1.0 4.0 0.00 0.00 0.00 55 1009.8
20260901014525 66 214 1.0 6.0 0.00 0.00 0.00 55 1009.6
20260901013031 67 171 1.0 5.0 0.00 0.00 0.00 56 1009.7
20260901011523 67 215 3.0 7.0 0.00 0.00 0.00 55 1009.6
20260901010029 68 236 2.0 6.0 0.00 0.00 0.00 54 1009.7
20260901004523 70 251 3.0 7.0 0.00 0.00 0.00 52 1009.6
20260901003018 71 217 2.0 8.0 0.00 0.00 0.00 51 1009.6
20260901001525 72 227 3.0 6.0 0.00 0.00 0.00 49 1009.8
20260901000016 73 161 3.0 6.0 0.00 0.00 0.00 48 1009.8
20260831234516 74 201 4.0 7.0 0.00 0.00 0.00 47 1009.9
20260831233014 74 259 3.0 8.0 0.00 0.00 0.00 46 1009.9
20260831231515 75 216 3.0 8.0 0.00 0.00 0.00 44 1010.0
20260831230013 76 240 3.0 7.0 0.00 0.00 0.00 43 1010.0
20260831224513 76 249 3.0 7.0 0.00 0.00 0.00 41 1010.2
20260831223012 77 145 2.0 8.0 0.00 0.00 0.00 40 1010.3
20260831221511 78 246 3.0 7.0 0.00 0.00 0.00 39 1010.4
20260831220012 78 209 1.0 5.0 0.00 0.00 0.00 37 1010.5